Location: Unspecified
(41.1637°N, 24.2901°E)
Time: 11:23:38
(UTC+02:00)

ISS - Pass Details

Date: 06 May 2026
Orbit: 414 x 424 km, 51.6° (Epoch: 12 May)

Event Time Altitude Azimuth Distance (km) Brightness Sun altitude
Rises 04:07:18 0° 307° (NW) 2,363 -0.1 -11.9°
Reaches altitude 10° 04:09:25 10° 310° (NW) 1,499 -1.1 -11.6°
Maximum altitude 04:12:45 67° 33° (NNE) 456 -3.4 -11.1°
Drops below altitude 10° 04:16:07 10° 118° (ESE) 1,498 -0.6 -10.6°
Sets 04:18:13 0° 121° (ESE) 2,360 0.4 -10.2°
